owner,sensor,date,latitude,longitude,vertical_datum,sea_water_temperature,qcFlag 
TABS,ioos:station:wmo:42050:1,1996-02-23T00:00:00Z,28.8425,-94.2433,-2.0,15.34,11111222 
TABS,ioos:station:wmo:42050:1,1996-02-23T00:30:00Z,28.8425,-94.2433,-2.0,15.35,11111222 
TABS,ioos:station:wmo:42050:1,1996-02-23T01:00:00Z,28.8425,-94.2433,-2.0,15.34,11111222 
TABS,ioos:station:wmo:42050:1,1996-02-23T01:30:00Z,28.8425,-94.2433,-2.0,15.54,11111222 
TABS,ioos:station:wmo:42050:1,1996-02-23T02:00:00Z,28.8425,-94.2433,-2.0,15.5,11111222 
TABS,ioos:station:wmo:42050:1,1996-02-23T02:30:00Z,28.8425,-94.2433,-2.0,15.41,11111222 
TABS,ioos:station:wmo:42050:1,1996-02-23T03:00:00Z,28.8425,-94.2433,-2.0,15.53,11111222 
TABS,ioos:station:wmo:42050:1,1996-02-23T03:30:00Z,28.8425,-94.2433,-2.0,15.68,11111222 
TABS,ioos:station:wmo:42050:1,1996-02-23T04:00:00Z,28.8425,-94.2433,-2.0,15.73,11111222 
TABS,ioos:station:wmo:42050:1,1996-02-23T04:30:00Z,28.8425,-94.2433,-2.0,15.72,11111222 
TABS,ioos:station:wmo:42050:1,1996-02-23T05:00:00Z,28.8425,-94.2433,-2.0,15.73,11111222 
TABS,ioos:station:wmo:42050:1,1996-02-23T05:30:00Z,28.8425,-94.2433,-2.0,15.71,11111222 
TABS,ioos:station:wmo:42050:1,1996-02-23T06:00:00Z,28.8425,-94.2433,-2.0,15.68,11111222 
TABS,ioos:station:wmo:42050:1,1996-02-23T06:30:00Z,28.8425,-94.2433,-2.0,15.65,11111222 
TABS,ioos:station:wmo:42050:1,1996-02-23T07:00:00Z,28.8425,-94.2433,-2.0,15.6,11111222 
TABS,ioos:station:wmo:42050:1,1996-02-23T07:30:00Z,28.8425,-94.2433,-2.0,15.56,11111222 
TABS,ioos:station:wmo:42050:1,1996-02-23T08:00:00Z,28.8425,-94.2433,-2.0,15.51,11111222 
TABS,ioos:station:wmo:42050:1,1996-02-23T08:30:00Z,28.8425,-94.2433,-2.0,15.46,11111222 
TABS,ioos:station:wmo:42050:1,1996-02-23T09:00:00Z,28.8425,-94.2433,-2.0,15.42,11111222 
TABS,ioos:station:wmo:42050:1,1996-02-23T09:30:00Z,28.8425,-94.2433,-2.0,15.48,11111222 
TABS,ioos:station:wmo:42050:1,1996-02-23T10:00:00Z,28.8425,-94.2433,-2.0,15.52,11111222 
TABS,ioos:station:wmo:42050:1,1996-02-23T10:30:00Z,28.8425,-94.2433,-2.0,15.56,11111222 
TABS,ioos:station:wmo:42050:1,1996-02-23T11:00:00Z,28.8425,-94.2433,-2.0,15.59,11111222 
TABS,ioos:station:wmo:42050:1,1996-02-23T11:30:00Z,28.8425,-94.2433,-2.0,15.61,11111222 
TABS,ioos:station:wmo:42050:1,1996-02-23T12:00:00Z,28.8425,-94.2433,-2.0,15.61,11111222 
TABS,ioos:station:wmo:42050:1,1996-02-23T12:30:00Z,28.8425,-94.2433,-2.0,15.59,11111222 
TABS,ioos:station:wmo:42050:1,1996-02-23T13:00:00Z,28.8425,-94.2433,-2.0,15.59,11111222 
TABS,ioos:station:wmo:42050:1,1996-02-23T13:30:00Z,28.8425,-94.2433,-2.0,15.59,11111222 
TABS,ioos:station:wmo:42050:1,1996-02-23T14:00:00Z,28.8425,-94.2433,-2.0,15.59,11111222 
TABS,ioos:station:wmo:42050:1,1996-02-23T14:30:00Z,28.8425,-94.2433,-2.0,15.59,11111222 
TABS,ioos:station:wmo:42050:1,1996-02-23T15:00:00Z,28.8425,-94.2433,-2.0,15.59,11111222 
TABS,ioos:station:wmo:42050:1,1996-02-23T15:30:00Z,28.8425,-94.2433,-2.0,15.55,11111222 
TABS,ioos:station:wmo:42050:1,1996-02-23T16:00:00Z,28.8425,-94.2433,-2.0,15.52,11111222 
TABS,ioos:station:wmo:42050:1,1996-02-23T16:30:00Z,28.8425,-94.2433,-2.0,15.52,11111222 
TABS,ioos:station:wmo:42050:1,1996-02-23T17:00:00Z,28.8425,-94.2433,-2.0,15.55,11111222 
TABS,ioos:station:wmo:42050:1,1996-02-23T17:30:00Z,28.8425,-94.2433,-2.0,15.61,11111222 
TABS,ioos:station:wmo:42050:1,1996-02-23T18:00:00Z,28.8425,-94.2433,-2.0,15.72,11111222 
TABS,ioos:station:wmo:42050:1,1996-02-23T18:30:00Z,28.8425,-94.2433,-2.0,15.75,11111222 
TABS,ioos:station:wmo:42050:1,1996-02-23T19:00:00Z,28.8425,-94.2433,-2.0,15.74,11111222 
TABS,ioos:station:wmo:42050:1,1996-02-23T19:30:00Z,28.8425,-94.2433,-2.0,15.71,11111222 
TABS,ioos:station:wmo:42050:1,1996-02-23T20:00:00Z,28.8425,-94.2433,-2.0,15.67,11111222 
TABS,ioos:station:wmo:42050:1,1996-02-23T20:30:00Z,28.8425,-94.2433,-2.0,15.83,11111222 
TABS,ioos:station:wmo:42050:1,1996-02-23T21:00:00Z,28.8425,-94.2433,-2.0,15.93,11111222 
TABS,ioos:station:wmo:42050:1,1996-02-23T21:30:00Z,28.8425,-94.2433,-2.0,15.9,11111222 
TABS,ioos:station:wmo:42050:1,1996-02-23T22:00:00Z,28.8425,-94.2433,-2.0,15.98,11111222 
TABS,ioos:station:wmo:42050:1,1996-02-23T22:30:00Z,28.8425,-94.2433,-2.0,16.05,11111222 
TABS,ioos:station:wmo:42050:1,1996-02-23T23:00:00Z,28.8425,-94.2433,-2.0,16.17,11111222 
TABS,ioos:station:wmo:42050:1,1996-02-23T23:30:00Z,28.8425,-94.2433,-2.0,15.98,11111222 
TABS,ioos:station:wmo:42050:1,1996-02-24T00:00:00Z,28.8425,-94.2433,-2.0,16.01,11111222 
TABS,ioos:station:wmo:42050:1,1996-02-24T00:30:00Z,28.8425,-94.2433,-2.0,16.01,11111222 
TABS,ioos:station:wmo:42050:1,1996-02-24T01:00:00Z,28.8425,-94.2433,-2.0,16.2,11111222 
TABS,ioos:station:wmo:42050:1,1996-02-24T01:30:00Z,28.8425,-94.2433,-2.0,16.12,11111222 
TABS,ioos:station:wmo:42050:1,1996-02-24T02:00:00Z,28.8425,-94.2433,-2.0,16.33,11111222 
TABS,ioos:station:wmo:42050:1,1996-02-24T02:30:00Z,28.8425,-94.2433,-2.0,16.63,11111222 
TABS,ioos:station:wmo:42050:1,1996-02-24T03:00:00Z,28.8425,-94.2433,-2.0,16.73,11111222 
TABS,ioos:station:wmo:42050:1,1996-02-24T03:30:00Z,28.8425,-94.2433,-2.0,16.87,11111222 
TABS,ioos:station:wmo:42050:1,1996-02-24T04:00:00Z,28.8425,-94.2433,-2.0,16.89,11111222 
TABS,ioos:station:wmo:42050:1,1996-02-24T04:30:00Z,28.8425,-94.2433,-2.0,16.54,11111222 
TABS,ioos:station:wmo:42050:1,1996-02-24T05:00:00Z,28.8425,-94.2433,-2.0,16.47,11111222 
TABS,ioos:station:wmo:42050:1,1996-02-24T05:30:00Z,28.8425,-94.2433,-2.0,16.45,11111222 
TABS,ioos:station:wmo:42050:1,1996-02-24T06:00:00Z,28.8425,-94.2433,-2.0,16.53,11111222 
TABS,ioos:station:wmo:42050:1,1996-02-24T06:30:00Z,28.8425,-94.2433,-2.0,16.47,11111222 
TABS,ioos:station:wmo:42050:1,1996-02-24T07:00:00Z,28.8425,-94.2433,-2.0,16.37,11111222 
TABS,ioos:station:wmo:42050:1,1996-02-24T07:30:00Z,28.8425,-94.2433,-2.0,16.39,11111222 
TABS,ioos:station:wmo:42050:1,1996-02-24T08:00:00Z,28.8425,-94.2433,-2.0,16.2,11111222 
TABS,ioos:station:wmo:42050:1,1996-02-24T08:30:00Z,28.8425,-94.2433,-2.0,16.01,11111222 
TABS,ioos:station:wmo:42050:1,1996-02-24T09:00:00Z,28.8425,-94.2433,-2.0,16.14,11111222 
TABS,ioos:station:wmo:42050:1,1996-02-24T09:30:00Z,28.8425,-94.2433,-2.0,15.94,11111222 
TABS,ioos:station:wmo:42050:1,1996-02-24T10:00:00Z,28.8425,-94.2433,-2.0,16.59,11111222 
TABS,ioos:station:wmo:42050:1,1996-02-24T10:30:00Z,28.8425,-94.2433,-2.0,16.53,11111222 
TABS,ioos:station:wmo:42050:1,1996-02-24T11:00:00Z,28.8425,-94.2433,-2.0,16.24,11111222 
TABS,ioos:station:wmo:42050:1,1996-02-24T11:30:00Z,28.8425,-94.2433,-2.0,16.54,11111222 
TABS,ioos:station:wmo:42050:1,1996-02-24T12:00:00Z,28.8425,-94.2433,-2.0,16.43,11111222 
TABS,ioos:station:wmo:42050:1,1996-02-24T12:30:00Z,28.8425,-94.2433,-2.0,16.17,11111222 
TABS,ioos:station:wmo:42050:1,1996-02-24T13:00:00Z,28.8425,-94.2433,-2.0,15.98,11111222 
TABS,ioos:station:wmo:42050:1,1996-02-24T13:30:00Z,28.8425,-94.2433,-2.0,16.48,11111222 
TABS,ioos:station:wmo:42050:1,1996-02-24T14:00:00Z,28.8425,-94.2433,-2.0,15.94,11111222 
TABS,ioos:station:wmo:42050:1,1996-02-24T14:30:00Z,28.8425,-94.2433,-2.0,16.36,11111222 
TABS,ioos:station:wmo:42050:1,1996-02-24T15:00:00Z,28.8425,-94.2433,-2.0,16.4,11111222 
TABS,ioos:station:wmo:42050:1,1996-02-24T15:30:00Z,28.8425,-94.2433,-2.0,16.36,11111222 
TABS,ioos:station:wmo:42050:1,1996-02-24T16:00:00Z,28.8425,-94.2433,-2.0,16.54,11111222 
TABS,ioos:station:wmo:42050:1,1996-02-24T16:30:00Z,28.8425,-94.2433,-2.0,16.58,11111222 
TABS,ioos:station:wmo:42050:1,1996-02-24T17:00:00Z,28.8425,-94.2433,-2.0,16.65,11111222 
TABS,ioos:station:wmo:42050:1,1996-02-24T17:30:00Z,28.8425,-94.2433,-2.0,16.75,11111222 
TABS,ioos:station:wmo:42050:1,1996-02-24T18:00:00Z,28.8425,-94.2433,-2.0,16.78,11111222 
TABS,ioos:station:wmo:42050:1,1996-02-24T18:30:00Z,28.8425,-94.2433,-2.0,16.86,11111222 
TABS,ioos:station:wmo:42050:1,1996-02-24T19:00:00Z,28.8425,-94.2433,-2.0,16.87,11111222 
TABS,ioos:station:wmo:42050:1,1996-02-24T19:30:00Z,28.8425,-94.2433,-2.0,16.88,11111222 
TABS,ioos:station:wmo:42050:1,1996-02-24T20:00:00Z,28.8425,-94.2433,-2.0,16.94,11111222 
TABS,ioos:station:wmo:42050:1,1996-02-24T20:30:00Z,28.8425,-94.2433,-2.0,16.96,11111222 
TABS,ioos:station:wmo:42050:1,1996-02-24T21:00:00Z,28.8425,-94.2433,-2.0,16.94,11111222 
TABS,ioos:station:wmo:42050:1,1996-02-24T21:30:00Z,28.8425,-94.2433,-2.0,16.92,11111222 
TABS,ioos:station:wmo:42050:1,1996-02-24T22:00:00Z,28.8425,-94.2433,-2.0,16.87,11111222 
TABS,ioos:station:wmo:42050:1,1996-02-24T22:30:00Z,28.8425,-94.2433,-2.0,16.84,11111222 
TABS,ioos:station:wmo:42050:1,1996-02-24T23:00:00Z,28.8425,-94.2433,-2.0,16.82,11111222 
TABS,ioos:station:wmo:42050:1,1996-02-24T23:30:00Z,28.8425,-94.2433,-2.0,16.76,11111222 
TABS,ioos:station:wmo:42050:1,1996-02-25T00:00:00Z,28.8425,-94.2433,-2.0,16.78,11111222 
TABS,ioos:station:wmo:42050:1,1996-02-25T00:30:00Z,28.8425,-94.2433,-2.0,16.78,11111222 
TABS,ioos:station:wmo:42050:1,1996-02-25T01:00:00Z,28.8425,-94.2433,-2.0,16.75,11111222 
TABS,ioos:station:wmo:42050:1,1996-02-25T01:30:00Z,28.8425,-94.2433,-2.0,16.73,11111222 
TABS,ioos:station:wmo:42050:1,1996-02-25T02:00:00Z,28.8425,-94.2433,-2.0,16.68,11111222 
TABS,ioos:station:wmo:42050:1,1996-02-25T02:30:00Z,28.8425,-94.2433,-2.0,16.64,11111222 
TABS,ioos:station:wmo:42050:1,1996-02-25T03:00:00Z,28.8425,-94.2433,-2.0,16.61,11111222 
TABS,ioos:station:wmo:42050:1,1996-02-25T03:30:00Z,28.8425,-94.2433,-2.0,16.58,11111222 
TABS,ioos:station:wmo:42050:1,1996-02-25T04:00:00Z,28.8425,-94.2433,-2.0,16.56,11111222 
TABS,ioos:station:wmo:42050:1,1996-02-25T04:30:00Z,28.8425,-94.2433,-2.0,16.54,11111222 
TABS,ioos:station:wmo:42050:1,1996-02-25T05:00:00Z,28.8425,-94.2433,-2.0,16.49,11111222 
TABS,ioos:station:wmo:42050:1,1996-02-25T05:30:00Z,28.8425,-94.2433,-2.0,16.46,11111222 
TABS,ioos:station:wmo:42050:1,1996-02-25T06:00:00Z,28.8425,-94.2433,-2.0,16.45,11111222 
TABS,ioos:station:wmo:42050:1,1996-02-25T06:30:00Z,28.8425,-94.2433,-2.0,16.45,11111222 
TABS,ioos:station:wmo:42050:1,1996-02-25T07:00:00Z,28.8425,-94.2433,-2.0,16.45,11111222 
TABS,ioos:station:wmo:42050:1,1996-02-25T07:30:00Z,28.8425,-94.2433,-2.0,16.45,11111222 
TABS,ioos:station:wmo:42050:1,1996-02-25T08:00:00Z,28.8425,-94.2433,-2.0,16.45,11111222 
TABS,ioos:station:wmo:42050:1,1996-02-25T08:30:00Z,28.8425,-94.2433,-2.0,16.45,11111222 
TABS,ioos:station:wmo:42050:1,1996-02-25T09:00:00Z,28.8425,-94.2433,-2.0,16.41,11111222 
TABS,ioos:station:wmo:42050:1,1996-02-25T09:30:00Z,28.8425,-94.2433,-2.0,16.39,11111222 
TABS,ioos:station:wmo:42050:1,1996-02-25T10:00:00Z,28.8425,-94.2433,-2.0,16.38,11111222 
TABS,ioos:station:wmo:42050:1,1996-02-25T10:30:00Z,28.8425,-94.2433,-2.0,16.38,11111222 
TABS,ioos:station:wmo:42050:1,1996-02-25T11:00:00Z,28.8425,-94.2433,-2.0,16.37,11111222 
TABS,ioos:station:wmo:42050:1,1996-02-25T11:30:00Z,28.8425,-94.2433,-2.0,16.36,11111222 
TABS,ioos:station:wmo:42050:1,1996-02-25T12:00:00Z,28.8425,-94.2433,-2.0,16.36,11111222 
TABS,ioos:station:wmo:42050:1,1996-02-25T12:30:00Z,28.8425,-94.2433,-2.0,16.35,11111222 
TABS,ioos:station:wmo:42050:1,1996-02-25T13:00:00Z,28.8425,-94.2433,-2.0,16.34,11111222 
TABS,ioos:station:wmo:42050:1,1996-02-25T13:30:00Z,28.8425,-94.2433,-2.0,16.33,11111222 
TABS,ioos:station:wmo:42050:1,1996-02-25T14:00:00Z,28.8425,-94.2433,-2.0,16.34,11111222 
TABS,ioos:station:wmo:42050:1,1996-02-25T14:30:00Z,28.8425,-94.2433,-2.0,16.36,11111222 
TABS,ioos:station:wmo:42050:1,1996-02-25T15:00:00Z,28.8425,-94.2433,-2.0,16.36,11111222 
TABS,ioos:station:wmo:42050:1,1996-02-25T15:30:00Z,28.8425,-94.2433,-2.0,16.39,11111222 
TABS,ioos:station:wmo:42050:1,1996-02-25T16:00:00Z,28.8425,-94.2433,-2.0,16.4,11111222 
TABS,ioos:station:wmo:42050:1,1996-02-25T16:30:00Z,28.8425,-94.2433,-2.0,16.45,11111222 
TABS,ioos:station:wmo:42050:1,1996-02-25T17:00:00Z,28.8425,-94.2433,-2.0,16.53,11111222 
TABS,ioos:station:wmo:42050:1,1996-02-25T17:30:00Z,28.8425,-94.2433,-2.0,16.52,11111222 
TABS,ioos:station:wmo:42050:1,1996-02-25T18:00:00Z,28.8425,-94.2433,-2.0,16.61,11111222 
TABS,ioos:station:wmo:42050:1,1996-02-25T18:30:00Z,28.8425,-94.2433,-2.0,16.65,11111222 
TABS,ioos:station:wmo:42050:1,1996-02-25T19:00:00Z,28.8425,-94.2433,-2.0,16.58,11111222 
TABS,ioos:station:wmo:42050:1,1996-02-25T19:30:00Z,28.8425,-94.2433,-2.0,16.66,11111222 
TABS,ioos:station:wmo:42050:1,1996-02-25T20:00:00Z,28.8425,-94.2433,-2.0,16.66,11111222 
TABS,ioos:station:wmo:42050:1,1996-02-25T20:30:00Z,28.8425,-94.2433,-2.0,16.67,11111222 
TABS,ioos:station:wmo:42050:1,1996-02-25T21:00:00Z,28.8425,-94.2433,-2.0,16.76,11111222 
TABS,ioos:station:wmo:42050:1,1996-02-25T21:30:00Z,28.8425,-94.2433,-2.0,16.74,11111222 
TABS,ioos:station:wmo:42050:1,1996-02-25T22:00:00Z,28.8425,-94.2433,-2.0,16.89,11111222 
TABS,ioos:station:wmo:42050:1,1996-02-25T22:30:00Z,28.8425,-94.2433,-2.0,17.15,11111222 
TABS,ioos:station:wmo:42050:1,1996-02-25T23:00:00Z,28.8425,-94.2433,-2.0,17.23,11111222 
TABS,ioos:station:wmo:42050:1,1996-02-25T23:30:00Z,28.8425,-94.2433,-2.0,17.27,11111222 
TABS,ioos:station:wmo:42050:1,1996-02-26T00:00:00Z,28.8425,-94.2433,-2.0,17.31,11111222 
TABS,ioos:station:wmo:42050:1,1996-02-26T00:30:00Z,28.8425,-94.2433,-2.0,17.28,11111222 
TABS,ioos:station:wmo:42050:1,1996-02-26T01:00:00Z,28.8425,-94.2433,-2.0,17.29,11111222 
TABS,ioos:station:wmo:42050:1,1996-02-26T01:30:00Z,28.8425,-94.2433,-2.0,17.28,11111222 
TABS,ioos:station:wmo:42050:1,1996-02-26T02:00:00Z,28.8425,-94.2433,-2.0,17.22,11111222 
TABS,ioos:station:wmo:42050:1,1996-02-26T02:30:00Z,28.8425,-94.2433,-2.0,17.24,11111222 
TABS,ioos:station:wmo:42050:1,1996-02-26T03:00:00Z,28.8425,-94.2433,-2.0,17.18,11111222 
TABS,ioos:station:wmo:42050:1,1996-02-26T03:30:00Z,28.8425,-94.2433,-2.0,17.22,11111222 
TABS,ioos:station:wmo:42050:1,1996-02-26T04:00:00Z,28.8425,-94.2433,-2.0,17.17,11111222 
TABS,ioos:station:wmo:42050:1,1996-02-26T04:30:00Z,28.8425,-94.2433,-2.0,17.14,11111222 
TABS,ioos:station:wmo:42050:1,1996-02-26T05:00:00Z,28.8425,-94.2433,-2.0,17.1,11111222 
TABS,ioos:station:wmo:42050:1,1996-02-26T05:30:00Z,28.8425,-94.2433,-2.0,17.09,11111222 
TABS,ioos:station:wmo:42050:1,1996-02-26T06:00:00Z,28.8425,-94.2433,-2.0,17.08,11111222 
TABS,ioos:station:wmo:42050:1,1996-02-26T06:30:00Z,28.8425,-94.2433,-2.0,17.06,11111222 
TABS,ioos:station:wmo:42050:1,1996-02-26T07:00:00Z,28.8425,-94.2433,-2.0,17.05,11111222 
TABS,ioos:station:wmo:42050:1,1996-02-26T07:30:00Z,28.8425,-94.2433,-2.0,17.01,11111222 
TABS,ioos:station:wmo:42050:1,1996-02-26T08:00:00Z,28.8425,-94.2433,-2.0,17.04,11111222 
TABS,ioos:station:wmo:42050:1,1996-02-26T08:30:00Z,28.8425,-94.2433,-2.0,17.07,11111222 
TABS,ioos:station:wmo:42050:1,1996-02-26T09:00:00Z,28.8425,-94.2433,-2.0,16.98,11111222 
TABS,ioos:station:wmo:42050:1,1996-02-26T09:30:00Z,28.8425,-94.2433,-2.0,16.92,11111222 
TABS,ioos:station:wmo:42050:1,1996-02-26T10:00:00Z,28.8425,-94.2433,-2.0,16.88,11111222 
TABS,ioos:station:wmo:42050:1,1996-02-26T10:30:00Z,28.8425,-94.2433,-2.0,16.86,11111222 
TABS,ioos:station:wmo:42050:1,1996-02-26T11:00:00Z,28.8425,-94.2433,-2.0,16.81,11111222 
TABS,ioos:station:wmo:42050:1,1996-02-26T11:30:00Z,28.8425,-94.2433,-2.0,16.73,11111222 
TABS,ioos:station:wmo:42050:1,1996-02-26T12:00:00Z,28.8425,-94.2433,-2.0,16.67,11111222 
TABS,ioos:station:wmo:42050:1,1996-02-26T12:30:00Z,28.8425,-94.2433,-2.0,16.63,11111222 
TABS,ioos:station:wmo:42050:1,1996-02-26T13:00:00Z,28.8425,-94.2433,-2.0,16.65,11111222 
TABS,ioos:station:wmo:42050:1,1996-02-26T13:30:00Z,28.8425,-94.2433,-2.0,16.67,11111222 
TABS,ioos:station:wmo:42050:1,1996-02-26T14:00:00Z,28.8425,-94.2433,-2.0,16.67,11111222 
TABS,ioos:station:wmo:42050:1,1996-02-26T14:30:00Z,28.8425,-94.2433,-2.0,16.7,11111222 
TABS,ioos:station:wmo:42050:1,1996-02-26T15:00:00Z,28.8425,-94.2433,-2.0,16.72,11111222 
TABS,ioos:station:wmo:42050:1,1996-02-26T15:30:00Z,28.8425,-94.2433,-2.0,16.75,11111222 
TABS,ioos:station:wmo:42050:1,1996-02-26T16:00:00Z,28.8425,-94.2433,-2.0,16.78,11111222 
TABS,ioos:station:wmo:42050:1,1996-02-26T16:30:00Z,28.8425,-94.2433,-2.0,16.83,11111222 
TABS,ioos:station:wmo:42050:1,1996-02-26T17:00:00Z,28.8425,-94.2433,-2.0,16.9,11111222 
TABS,ioos:station:wmo:42050:1,1996-02-26T17:30:00Z,28.8425,-94.2433,-2.0,16.92,11111222 
TABS,ioos:station:wmo:42050:1,1996-02-26T18:00:00Z,28.8425,-94.2433,-2.0,16.97,11111222 
TABS,ioos:station:wmo:42050:1,1996-02-26T18:30:00Z,28.8425,-94.2433,-2.0,17.05,11111222 
TABS,ioos:station:wmo:42050:1,1996-02-26T19:00:00Z,28.8425,-94.2433,-2.0,17.34,11111222 
TABS,ioos:station:wmo:42050:1,1996-02-26T19:30:00Z,28.8425,-94.2433,-2.0,17.55,11111222 
TABS,ioos:station:wmo:42050:1,1996-02-26T20:00:00Z,28.8425,-94.2433,-2.0,17.59,11111222 
TABS,ioos:station:wmo:42050:1,1996-02-26T20:30:00Z,28.8425,-94.2433,-2.0,17.63,11111222 
TABS,ioos:station:wmo:42050:1,1996-02-26T21:00:00Z,28.8425,-94.2433,-2.0,17.62,11111222 
TABS,ioos:station:wmo:42050:1,1996-02-26T21:30:00Z,28.8425,-94.2433,-2.0,17.6,11111222 
TABS,ioos:station:wmo:42050:1,1996-02-26T22:00:00Z,28.8425,-94.2433,-2.0,17.57,11111222 
TABS,ioos:station:wmo:42050:1,1996-02-26T22:30:00Z,28.8425,-94.2433,-2.0,17.56,11111222 
TABS,ioos:station:wmo:42050:1,1996-02-26T23:00:00Z,28.8425,-94.2433,-2.0,17.5,11111222 
TABS,ioos:station:wmo:42050:1,1996-02-26T23:30:00Z,28.8425,-94.2433,-2.0,17.44,11111222 
TABS,ioos:station:wmo:42050:1,1996-02-27T00:00:00Z,28.8425,-94.2433,-2.0,17.4,11111222 
TABS,ioos:station:wmo:42050:1,1996-02-27T00:30:00Z,28.8425,-94.2433,-2.0,17.41,11111222 
TABS,ioos:station:wmo:42050:1,1996-02-27T01:00:00Z,28.8425,-94.2433,-2.0,17.46,11111222 
TABS,ioos:station:wmo:42050:1,1996-02-27T01:30:00Z,28.8425,-94.2433,-2.0,17.49,11111222 
TABS,ioos:station:wmo:42050:1,1996-02-27T02:00:00Z,28.8425,-94.2433,-2.0,17.51,11111222 
TABS,ioos:station:wmo:42050:1,1996-02-27T02:30:00Z,28.8425,-94.2433,-2.0,17.51,11111222 
TABS,ioos:station:wmo:42050:1,1996-02-27T03:00:00Z,28.8425,-94.2433,-2.0,17.58,11111222 
TABS,ioos:station:wmo:42050:1,1996-02-27T03:30:00Z,28.8425,-94.2433,-2.0,17.62,11111222 
TABS,ioos:station:wmo:42050:1,1996-02-27T04:00:00Z,28.8425,-94.2433,-2.0,17.63,11111222 
TABS,ioos:station:wmo:42050:1,1996-02-27T04:30:00Z,28.8425,-94.2433,-2.0,17.59,11111222 
TABS,ioos:station:wmo:42050:1,1996-02-27T05:00:00Z,28.8425,-94.2433,-2.0,17.56,11111222 
TABS,ioos:station:wmo:42050:1,1996-02-27T05:30:00Z,28.8425,-94.2433,-2.0,17.53,11111222 
TABS,ioos:station:wmo:42050:1,1996-02-27T06:00:00Z,28.8425,-94.2433,-2.0,17.49,11111222 
TABS,ioos:station:wmo:42050:1,1996-02-27T06:30:00Z,28.8425,-94.2433,-2.0,17.45,11111222 
TABS,ioos:station:wmo:42050:1,1996-02-27T07:00:00Z,28.8425,-94.2433,-2.0,17.4,11111222 
TABS,ioos:station:wmo:42050:1,1996-02-27T07:30:00Z,28.8425,-94.2433,-2.0,17.36,11111222 
TABS,ioos:station:wmo:42050:1,1996-02-27T08:00:00Z,28.8425,-94.2433,-2.0,17.31,11111222 
TABS,ioos:station:wmo:42050:1,1996-02-27T08:30:00Z,28.8425,-94.2433,-2.0,17.28,11111222 
TABS,ioos:station:wmo:42050:1,1996-02-27T09:00:00Z,28.8425,-94.2433,-2.0,17.26,11111222 
TABS,ioos:station:wmo:42050:1,1996-02-27T09:30:00Z,28.8425,-94.2433,-2.0,17.24,11111222 
TABS,ioos:station:wmo:42050:1,1996-02-27T10:00:00Z,28.8425,-94.2433,-2.0,17.21,11111222 
TABS,ioos:station:wmo:42050:1,1996-02-27T10:30:00Z,28.8425,-94.2433,-2.0,17.2,11111222 
TABS,ioos:station:wmo:42050:1,1996-02-27T11:00:00Z,28.8425,-94.2433,-2.0,17.17,11111222 
TABS,ioos:station:wmo:42050:1,1996-02-27T11:30:00Z,28.8425,-94.2433,-2.0,17.15,11111222 
TABS,ioos:station:wmo:42050:1,1996-02-27T12:00:00Z,28.8425,-94.2433,-2.0,17.13,11111222 
TABS,ioos:station:wmo:42050:1,1996-02-27T12:30:00Z,28.8425,-94.2433,-2.0,17.12,11111222 
TABS,ioos:station:wmo:42050:1,1996-02-27T13:00:00Z,28.8425,-94.2433,-2.0,17.09,11111222 
TABS,ioos:station:wmo:42050:1,1996-02-27T13:30:00Z,28.8425,-94.2433,-2.0,17.06,11111222 
TABS,ioos:station:wmo:42050:1,1996-02-27T14:00:00Z,28.8425,-94.2433,-2.0,17.06,11111222 
TABS,ioos:station:wmo:42050:1,1996-02-27T14:30:00Z,28.8425,-94.2433,-2.0,17.09,11111222 
TABS,ioos:station:wmo:42050:1,1996-02-27T15:00:00Z,28.8425,-94.2433,-2.0,17.11,11111222 
TABS,ioos:station:wmo:42050:1,1996-02-27T15:30:00Z,28.8425,-94.2433,-2.0,17.17,11111222 
TABS,ioos:station:wmo:42050:1,1996-02-27T16:00:00Z,28.8425,-94.2433,-2.0,17.22,11111222 
TABS,ioos:station:wmo:42050:1,1996-02-27T16:30:00Z,28.8425,-94.2433,-2.0,17.27,11111222 
TABS,ioos:station:wmo:42050:1,1996-02-27T17:00:00Z,28.8425,-94.2433,-2.0,17.31,11111222 
TABS,ioos:station:wmo:42050:1,1996-02-27T17:30:00Z,28.8425,-94.2433,-2.0,17.36,11111222 
TABS,ioos:station:wmo:42050:1,1996-02-27T18:00:00Z,28.8425,-94.2433,-2.0,17.37,11111222 
TABS,ioos:station:wmo:42050:1,1996-02-27T18:30:00Z,28.8425,-94.2433,-2.0,17.39,11111222 
TABS,ioos:station:wmo:42050:1,1996-02-27T19:00:00Z,28.8425,-94.2433,-2.0,17.46,11111222 
TABS,ioos:station:wmo:42050:1,1996-02-27T19:30:00Z,28.8425,-94.2433,-2.0,17.4,11111222 
TABS,ioos:station:wmo:42050:1,1996-02-27T20:00:00Z,28.8425,-94.2433,-2.0,17.39,11111222 
TABS,ioos:station:wmo:42050:1,1996-02-27T20:30:00Z,28.8425,-94.2433,-2.0,17.41,11111222 
TABS,ioos:station:wmo:42050:1,1996-02-27T21:00:00Z,28.8425,-94.2433,-2.0,17.32,11111222 
TABS,ioos:station:wmo:42050:1,1996-02-27T21:30:00Z,28.8425,-94.2433,-2.0,17.32,11111222 
TABS,ioos:station:wmo:42050:1,1996-02-27T22:00:00Z,28.8425,-94.2433,-2.0,17.33,11111222 
TABS,ioos:station:wmo:42050:1,1996-02-27T22:30:00Z,28.8425,-94.2433,-2.0,17.33,11111222 
TABS,ioos:station:wmo:42050:1,1996-02-27T23:00:00Z,28.8425,-94.2433,-2.0,17.36,11111222 
TABS,ioos:station:wmo:42050:1,1996-02-27T23:30:00Z,28.8425,-94.2433,-2.0,17.37,11111222 
TABS,ioos:station:wmo:42050:1,1996-02-28T00:00:00Z,28.8425,-94.2433,-2.0,17.35,11111222 
TABS,ioos:station:wmo:42050:1,1996-02-28T00:30:00Z,28.8425,-94.2433,-2.0,17.38,11111222 
TABS,ioos:station:wmo:42050:1,1996-02-28T01:00:00Z,28.8425,-94.2433,-2.0,17.39,11111222 
TABS,ioos:station:wmo:42050:1,1996-02-28T01:30:00Z,28.8425,-94.2433,-2.0,17.5,11111222 
TABS,ioos:station:wmo:42050:1,1996-02-28T02:00:00Z,28.8425,-94.2433,-2.0,17.53,11111222 
TABS,ioos:station:wmo:42050:1,1996-02-28T02:30:00Z,28.8425,-94.2433,-2.0,17.61,11111222 
TABS,ioos:station:wmo:42050:1,1996-02-28T03:00:00Z,28.8425,-94.2433,-2.0,17.64,11111222 
TABS,ioos:station:wmo:42050:1,1996-02-28T03:30:00Z,28.8425,-94.2433,-2.0,17.66,11111222 
TABS,ioos:station:wmo:42050:1,1996-02-28T04:00:00Z,28.8425,-94.2433,-2.0,17.69,11111222 
TABS,ioos:station:wmo:42050:1,1996-02-28T04:30:00Z,28.8425,-94.2433,-2.0,17.72,11111222 
TABS,ioos:station:wmo:42050:1,1996-02-28T05:00:00Z,28.8425,-94.2433,-2.0,17.72,11111222 
TABS,ioos:station:wmo:42050:1,1996-02-28T05:30:00Z,28.8425,-94.2433,-2.0,17.77,11111222 
TABS,ioos:station:wmo:42050:1,1996-02-28T06:00:00Z,28.8425,-94.2433,-2.0,17.84,11111222 
TABS,ioos:station:wmo:42050:1,1996-02-28T06:30:00Z,28.8425,-94.2433,-2.0,17.99,11111222 
TABS,ioos:station:wmo:42050:1,1996-02-28T07:00:00Z,28.8425,-94.2433,-2.0,18.06,11111222 
TABS,ioos:station:wmo:42050:1,1996-02-28T07:30:00Z,28.8425,-94.2433,-2.0,18.13,11111222 
TABS,ioos:station:wmo:42050:1,1996-02-28T08:00:00Z,28.8425,-94.2433,-2.0,18.13,11111222 
TABS,ioos:station:wmo:42050:1,1996-02-28T08:30:00Z,28.8425,-94.2433,-2.0,18.02,11111222 
TABS,ioos:station:wmo:42050:1,1996-02-28T09:00:00Z,28.8425,-94.2433,-2.0,17.89,11111222 
TABS,ioos:station:wmo:42050:1,1996-02-28T09:30:00Z,28.8425,-94.2433,-2.0,17.89,11111222 
TABS,ioos:station:wmo:42050:1,1996-02-28T10:00:00Z,28.8425,-94.2433,-2.0,17.85,11111222 
TABS,ioos:station:wmo:42050:1,1996-02-28T10:30:00Z,28.8425,-94.2433,-2.0,17.84,11111222 
TABS,ioos:station:wmo:42050:1,1996-02-28T11:00:00Z,28.8425,-94.2433,-2.0,17.82,11111222 
TABS,ioos:station:wmo:42050:1,1996-02-28T11:30:00Z,28.8425,-94.2433,-2.0,17.79,11111222 
TABS,ioos:station:wmo:42050:1,1996-02-28T12:00:00Z,28.8425,-94.2433,-2.0,17.77,11111222 
TABS,ioos:station:wmo:42050:1,1996-02-28T12:30:00Z,28.8425,-94.2433,-2.0,17.69,11111222 
TABS,ioos:station:wmo:42050:1,1996-02-28T13:00:00Z,28.8425,-94.2433,-2.0,17.61,11111222 
TABS,ioos:station:wmo:42050:1,1996-02-28T13:30:00Z,28.8425,-94.2433,-2.0,17.54,11111222 